TimeCST,TemperatureF,Dew PointF,Humidity,Sea Level PressureIn,VisibilityMPH,Wind Direction,Wind SpeedMPH,Gust SpeedMPH,PrecipitationIn,Events,Conditions,WindDirDegrees,DateUTC
12:53 AM,25.0,21.0,85,29.83,4.0,South,5.8,-,N/A,,Overcast,170,2014-03-07 06:53:00
1:53 AM,26.1,21.0,81,29.82,3.0,SE,4.6,-,N/A,,Haze,140,2014-03-07 07:53:00
2:27 AM,26.6,21.2,80,29.75,3.0,SE,4.6,-,N/A,,Haze,140,2014-03-07 08:27:00
2:53 AM,26.1,21.9,84,29.81,3.0,Calm,Calm,-,N/A,,Overcast,0,2014-03-07 08:53:00
3:53 AM,27.0,21.0,78,29.81,3.0,Calm,Calm,-,N/A,,Haze,0,2014-03-07 09:53:00
4:50 AM,26.6,23.0,86,29.76,2.5,Calm,Calm,-,N/A,,Overcast,0,2014-03-07 10:50:00
4:53 AM,27.0,23.0,85,29.83,2.5,Calm,Calm,-,N/A,,Overcast,0,2014-03-07 10:53:00
5:06 AM,26.6,23.0,86,29.75,2.5,Calm,Calm,-,0.00,,Overcast,0,2014-03-07 11:06:00
5:18 AM,28.4,24.8,86,29.75,2.0,ENE,3.5,-,0.01,Rain,Light Freezing Rain,60,2014-03-07 11:18:00
5:23 AM,28.4,24.8,86,29.75,1.8,NE,4.6,-,0.02,Rain,Light Freezing Rain,50,2014-03-07 11:23:00
5:31 AM,28.4,24.8,86,29.74,1.5,ENE,5.8,-,0.05,Rain,Light Freezing Rain,60,2014-03-07 11:31:00
5:43 AM,28.4,26.6,93,29.75,1.5,Calm,Calm,-,0.08,Rain,Light Freezing Rain,0,2014-03-07 11:43:00
5:53 AM,28.9,26.1,89,29.83,1.8,Calm,Calm,-,0.08,Rain,Light Freezing Rain,0,2014-03-07 11:53:00
6:44 AM,30.2,26.6,86,29.79,2.0,West,4.6,-,0.01,,Overcast,280,2014-03-07 12:44:00
6:53 AM,30.0,26.1,85,29.86,1.8,WNW,4.6,-,0.01,,Overcast,300,2014-03-07 12:53:00
7:53 AM,30.0,26.1,85,29.88,1.0,West,5.8,-,N/A,,Overcast,280,2014-03-07 13:53:00
8:04 AM,30.2,26.6,86,29.81,0.8,WNW,4.6,-,N/A,,Overcast,290,2014-03-07 14:04:00
8:51 AM,30.2,26.6,86,29.83,1.2,NW,15.0,19.6,N/A,,Overcast,310,2014-03-07 14:51:00
8:53 AM,30.9,27.0,85,29.90,1.5,NW,16.1,-,N/A,,Overcast,310,2014-03-07 14:53:00
9:06 AM,30.2,26.6,86,29.84,2.0,NW,17.3,20.7,0.01,,Haze,310,2014-03-07 15:06:00
9:24 AM,30.2,23.0,75,29.84,3.0,NW,17.3,-,0.02,,Haze,310,2014-03-07 15:24:00
9:34 AM,28.4,23.0,80,29.85,3.0,NW,13.8,-,0.02,,Haze,320,2014-03-07 15:34:00
9:53 AM,28.9,21.9,75,29.94,4.0,NW,16.1,-,0.02,,Haze,310,2014-03-07 15:53:00
10:04 AM,28.4,21.2,74,29.87,4.0,NW,18.4,-,N/A,,Haze,320,2014-03-07 16:04:00
10:53 AM,28.0,21.0,75,29.96,6.0,NW,18.4,-,N/A,,Haze,310,2014-03-07 16:53:00
11:53 AM,28.0,19.9,72,29.99,8.0,NNW,17.3,23.0,N/A,,Overcast,330,2014-03-07 17:53:00
12:53 PM,27.0,19.0,72,30.01,10.0,NW,15.0,23.0,N/A,,Overcast,320,2014-03-07 18:53:00
1:53 PM,28.0,19.0,69,30.03,10.0,NNW,13.8,20.7,N/A,,Overcast,330,2014-03-07 19:53:00
2:53 PM,28.0,19.0,69,30.04,10.0,NNW,15.0,21.9,N/A,,Overcast,330,2014-03-07 20:53:00
3:53 PM,28.9,19.0,67,30.07,10.0,NNW,15.0,20.7,N/A,,Overcast,340,2014-03-07 21:53:00
4:37 PM,28.4,17.6,64,30.02,10.0,North,10.4,21.9,N/A,,Overcast,360,2014-03-07 22:37:00
4:44 PM,28.4,17.6,64,30.03,10.0,North,15.0,21.9,N/A,,Overcast,350,2014-03-07 22:44:00
4:53 PM,28.0,17.1,63,30.11,10.0,North,17.3,-,N/A,,Overcast,350,2014-03-07 22:53:00
5:53 PM,28.0,16.0,61,30.14,10.0,North,11.5,-,N/A,,Overcast,360,2014-03-07 23:53:00
6:53 PM,27.0,16.0,63,30.18,10.0,North,8.1,-,N/A,,Overcast,10,2014-03-08 00:53:00
7:14 PM,26.6,15.8,64,30.12,10.0,North,8.1,-,N/A,,Overcast,360,2014-03-08 01:14:00
7:53 PM,25.0,14.0,63,30.20,10.0,North,6.9,-,N/A,,Scattered Clouds,350,2014-03-08 01:53:00
8:53 PM,23.0,14.0,68,30.22,10.0,North,6.9,-,N/A,,Mostly Cloudy,360,2014-03-08 02:53:00
9:53 PM,24.1,14.0,65,30.25,10.0,North,9.2,-,N/A,,Overcast,350,2014-03-08 03:53:00
10:53 PM,23.0,12.9,65,30.27,10.0,North,9.2,-,N/A,,Overcast,350,2014-03-08 04:53:00
11:48 PM,21.2,12.2,68,30.20,10.0,North,6.9,-,N/A,,Overcast,350,2014-03-08 05:48:00
11:53 PM,21.9,12.9,68,30.28,10.0,NNW,5.8,-,N/A,,Overcast,340,2014-03-08 05:53:00